TimeCDT,TemperatureF,Dew PointF,Humidity,Sea Level PressureIn,VisibilityMPH,Wind Direction,Wind SpeedMPH,Gust SpeedMPH,PrecipitationIn,Events,Conditions,WindDirDegrees,DateUTC
12:54 AM,64.9,54.0,68,29.89,10.0,SSE,4.6,-,N/A,,Clear,150,2013-06-09 05:54:00
1:54 AM,66.9,54.0,63,29.88,10.0,SSE,8.1,-,N/A,,Clear,160,2013-06-09 06:54:00
2:54 AM,66.9,55.0,66,29.87,10.0,SSE,10.4,-,N/A,,Mostly Cloudy,160,2013-06-09 07:54:00
3:54 AM,66.0,55.9,70,29.86,10.0,SSE,10.4,-,N/A,,Scattered Clouds,150,2013-06-09 08:54:00
4:54 AM,64.9,55.9,73,29.85,10.0,SSE,9.2,-,N/A,,Scattered Clouds,160,2013-06-09 09:54:00
5:54 AM,66.0,55.9,70,29.84,10.0,SSE,6.9,-,N/A,,Clear,160,2013-06-09 10:54:00
6:54 AM,66.9,55.9,68,29.84,10.0,South,9.2,-,N/A,,Clear,170,2013-06-09 11:54:00
7:54 AM,69.1,57.0,65,29.86,10.0,South,10.4,-,N/A,,Partly Cloudy,190,2013-06-09 12:54:00
8:54 AM,69.1,57.0,65,29.86,10.0,South,9.2,-,N/A,,Mostly Cloudy,180,2013-06-09 13:54:00
9:54 AM,70.0,57.9,65,29.85,10.0,South,8.1,-,N/A,,Overcast,190,2013-06-09 14:54:00
10:54 AM,71.1,60.1,68,29.84,10.0,SSW,11.5,-,N/A,,Mostly Cloudy,210,2013-06-09 15:54:00
11:54 AM,70.0,60.1,71,29.85,10.0,SSW,11.5,-,N/A,,Overcast,200,2013-06-09 16:54:00
12:54 PM,66.9,63.0,87,29.85,7.0,South,6.9,-,0.06,Rain,Light Rain,180,2013-06-09 17:54:00
1:41 PM,66.2,62.6,88,29.84,6.0,South,6.9,-,0.03,Rain,Light Rain,180,2013-06-09 18:41:00
1:54 PM,64.9,62.1,90,29.82,8.0,South,8.1,-,0.04,Rain,Light Rain,170,2013-06-09 18:54:00
2:54 PM,69.1,62.1,78,29.80,10.0,South,10.4,-,0.00,,Scattered Clouds,190,2013-06-09 19:54:00
3:54 PM,71.1,61.0,70,29.78,10.0,South,10.4,-,N/A,,Mostly Cloudy,170,2013-06-09 20:54:00
4:01 PM,71.6,60.8,69,29.80,10.0,South,10.4,-,N/A,,Mostly Cloudy,180,2013-06-09 21:01:00
4:40 PM,71.6,60.8,69,29.78,10.0,South,10.4,-,N/A,,Partly Cloudy,190,2013-06-09 21:40:00
4:54 PM,73.0,62.1,68,29.76,10.0,South,11.5,-,N/A,,Partly Cloudy,180,2013-06-09 21:54:00
5:54 PM,73.9,61.0,64,29.75,10.0,SSW,8.1,-,N/A,,Scattered Clouds,200,2013-06-09 22:54:00
6:54 PM,69.1,61.0,75,29.79,4.0,West,18.4,21.9,0.05,Rain-Thunderstorm,Thunderstorms and Rain,260,2013-06-09 23:54:00
7:02 PM,62.6,55.4,77,29.80,2.0,West,4.6,21.9,0.06,Rain,Heavy Rain,270,2013-06-10 00:02:00
7:08 PM,62.6,55.4,77,29.80,4.0,Calm,Calm,-,0.06,Rain-Thunderstorm,Light Rain,0,2013-06-10 00:08:00
7:54 PM,64.0,59.0,84,29.77,10.0,SE,4.6,-,0.09,,Scattered Clouds,140,2013-06-10 00:54:00
8:54 PM,63.0,59.0,87,29.77,10.0,SSE,5.8,-,N/A,,Mostly Cloudy,150,2013-06-10 01:54:00
9:54 PM,62.1,60.1,93,29.78,10.0,South,6.9,-,0.02,Rain,Light Rain,190,2013-06-10 02:54:00
10:54 PM,62.1,60.1,93,29.78,10.0,South,5.8,-,0.06,,Partly Cloudy,190,2013-06-10 03:54:00
11:54 PM,62.1,60.1,93,29.78,10.0,SSW,3.5,-,N/A,,Clear,200,2013-06-10 04:54:00